Location: Moena
(46.3667°N, 11.6500°E)
Time: 14:30:27
(UTC+00:00)

Cosmos 2333 Rocket - Pass Details

Date: 17 June 2021
Orbit: 841 x 861 km, 70.8° (Epoch: 26 July)

Event Time Altitude Azimuth Distance (km) Brightness Sun altitude
Exits shadow 20:55:54 12° 184° (S) 2,348 4.0 -13.5°
Maximum altitude 21:01:03 53° 110° (ESE) 1,049 2.4 -14.0°
Drops below altitude 10° 21:06:36 10° 35° (NE) 2,494 5.0 -14.5°
Sets 21:09:06 0° 31° (NNE) 3,431 5.8 -14.7°
